Location: Tierra del Sol
(32.6128°N, 116.3319°W)
Time: 17:20:50
(UTC-07:00)

Tiangong 2 - Pass Details

Date: 09 October 2017
Orbit: 388 x 392 km, 42.8° (Epoch: 17 October)

Event Time Altitude Azimuth Distance (km) Brightness Sun altitude
Exits shadow 05:00:47 37° 46° (NE) 617 2.4 -22.8°
Drops below altitude 10° 05:02:54 10° 56° (NE) 1,420 4.8 -22.3°
Sets 05:04:59 0° 58° (ENE) 2,278 6.1 -21.9°
